Location: Mansoura
(31.0409°N, 31.3785°E)
Time: 22:35:35
(UTC+03:00)

BlueWalker 3 - Pass Details

Date: 29 September 2024
Orbit: 472 x 484 km, 53.2° (Epoch: 13 October)

Event Time Altitude Azimuth Distance (km) Brightness Sun altitude
Rises 05:56:53 0° 187° (S) 2,498 5.4 -11.6°
Reaches altitude 10° 05:59:33 10° 167° (SSE) 1,624 4.6 -11.0°
Maximum altitude 06:02:02 17° 124° (SE) 1,236 4.7 -10.5°
Drops below altitude 10° 06:04:32 10° 81° (E) 1,629 6.1 -9.9°
Sets 06:07:12 0° 61° (ENE) 2,509 6.8 -9.4°
